Weather in Flagstaff

United States     35°11′54″N   111°36′39″W
temp.,
°C
wind,
m/s
gust,
m/s
humid.,
%
clouds,
%
prec.,
mm/h
press.,
hPa
HPBL,
m
22 june, tue
tue2223:00+19w69210 0.0 1015103
02:00+18w611190 0.0 1015144
05:00+16w44281 0.0 101631
08:00+25wnw57172 0.0 10151630
11:00+29wnw461345 0.0 10133619
14:00+28wsw6715100 0.0 10123561
17:00+29wsw6616100 0.1 10103360
20:00+23w51025100 0.0 1012258
23 june, wed
wed2323:00+19w5944100 0.1 1016461
02:00+18w2345100 0.0 101561
05:00+19w234075 0.0 101565
08:00+17sw3357100 0.6 101787
11:00+24ssw6735100 0.8 10142276
14:00+24sw573370 0.1 10131971
17:00+24wsw453416 0.3 10121901
20:00+20wsw134826 0.1 101498
24 june, thu
thu2423:00+17w33611 0.4 101650
02:00+15wnw33670 0.0 101632
05:00+15sw22648 0.0 101730
08:00+21wsw46400 0.0 10161393
11:00+22wsw653767 0.0 10151685
14:00+25sw663281 0.0 10132502
17:00+26sw782533 0.1 10103095
20:00+21nnw233899 0.0 1013123
25 june, fri
fri2523:00+18sw224710 0.0 101627
02:00+15w22531 0.0 101615
05:00+15w22500 0.0 101612
08:00+22w23290 0.0 10151820
11:00+26ssw13195 0.0 10133140
14:00+29sw451455 0.0 10103822
17:00+28sw641254 0.0 10093624
20:00+22w562033 0.0 101173
26 june, sat
sat2623:00+19w57230 0.0 101473
02:00+17wnw33220 0.0 101414
05:00+16nw32242 0.0 101413
08:00+23nne34270 0.0 1013833
11:00+27ne67199 0.0 10123263
14:00+27ne541992 0.0 10103182
17:00+29ne651564 0.0 10083612
20:00+23nne45243 0.0 100954